[Date Prev][Date Next][Thread Prev][Thread Next] - [Date Index][Thread Index][Author Index]

2 Line ISS Keps 10-1



ISS
1 25544U 98067A   01274.20141381  .00048358  00000-0  57421-3 0  5406
2 25544  51.6375 275.3131 0007738 150.4086 308.9298 15.60652511163629


----
Via the sarex mailing list at AMSAT.ORG courtesy of AMSAT-NA.
To unsubscribe, send "unsubscribe sarex" to Majordomo@amsat.org



AMSAT Top AMSAT Home